Weather History for KPPO - February, 2014

Change the Weather History Date:

Thursday, February 6, 2014

  Actual Average (KVPZ) Record (KVPZ)
Temperature  
Mean Temperature 3 °F 25 °F  
Max Temperature 10 °F 33 °F 45 °F (1999)
Min Temperature -4 °F 18 °F -7 °F (2007)
Degree Days  
Heating Degree Days 62 40  
Month to date heating degree days 242  
Since 1 July heating degree days 3927  
Cooling Degree Days 0 0  
Month to date cooling degree days 0  
Year to date cooling degree days 0  
Moisture  
Dew Point -4 °F    
Average Humidity 76    
Maximum Humidity 88    
Minimum Humidity 63    
Precipitation  
Precipitation 0.00 in 0.05 in 0.19 in (2008)
Month to date precipitation 0.27  
Year to date precipitation 2.02  
Sea Level Pressure  
Sea Level Pressure 30.38 in    
Wind  
Wind Speed 7 mph (WSW)    
Max Wind Speed 13 mph    
Max Gust Speed -    
Visibility 9 miles    
Events Snow    
T = Trace of Precipitation, MM = Missing Value Source: NWS Daily Summary

Daily Weather History Graph

Daily Weather History Graph

Search for Another Location

Airport or City:

Trip Planner

Search our weather history database for the weather conditions in past years. The results will help you decide how hot, cold, wet, or windy it might be!

Date:

Astronomy

Feb. 06, 2014 Rise Set
Actual Time 6:53 AM CST 5:09 PM CST
Civil Twilight 6:24 AM CST 5:38 PM CST
Nautical Twilight 5:51 AM CST 6:11 PM CST
Astronomical Twilight 5:19 AM CST 6:43 PM CST
Moon 10:40 AM CST (2/6) 12:08 AM CST (2/6)
Length of Visible Light 11h 13m
Length of Day
10h 15m
Waxing Crescent, 49% of the Moon is Illuminated
Feb 6
Waxing Crescent
Feb 6
First Quarter
Feb 14
Full
Feb 22
Last Quarter
Mar 1
New

Hourly Weather History & Observations

Time (CST) Temp. Windchill Dew Point Humidity Pressure Visibility Wind Dir Wind Speed Gust Speed Precip Events Conditions
12:15 AM 9.5 °F -0.3 °F 5.4 °F 83% 30.39 in 10.0 mi West 5.8 mph - N/A   Scattered Clouds
12:35 AM 8.8 °F 0.4 °F 4.8 °F 84% 30.39 in 10.0 mi West 4.6 mph - N/A   Scattered Clouds
12:55 AM 10.2 °F 3.8 °F 5.9 °F 83% 30.39 in 10.0 mi WNW 3.5 mph - N/A   Scattered Clouds
1:15 AM 9.1 °F -1.9 °F 4.5 °F 81% 30.39 in 10.0 mi West 6.9 mph - N/A   Scattered Clouds
1:35 AM 7.7 °F -3.7 °F 3.0 °F 81% 30.38 in 10.0 mi West 6.9 mph - N/A   Scattered Clouds
1:55 AM 6.8 °F -3.5 °F 2.3 °F 82% 30.38 in 10.0 mi West 5.8 mph - N/A Snow Light Snow
2:15 AM 6.1 °F -4.3 °F 1.4 °F 81% 30.38 in 10.0 mi WSW 5.8 mph - N/A   Mostly Cloudy
2:35 AM 7.2 °F -3.0 °F 2.8 °F 82% 30.38 in 10.0 mi WSW 5.8 mph - N/A   Overcast
2:55 AM 6.1 °F -4.3 °F 2.3 °F 84% 30.38 in 10.0 mi West 5.8 mph - N/A   Mostly Cloudy
3:15 AM 7.5 °F -1.1 °F 3.7 °F 85% 30.37 in 10.0 mi West 4.6 mph - N/A   Overcast
3:35 AM 6.3 °F -4.1 °F 2.3 °F 84% 30.37 in 7.0 mi West 5.8 mph - N/A Snow Light Snow
3:55 AM 5.9 °F -3.0 °F 2.8 °F 87% 30.38 in 10.0 mi WSW 4.6 mph - N/A   Mostly Cloudy
4:15 AM 6.8 °F -3.5 °F 3.7 °F 87% 30.39 in 7.0 mi WSW 5.8 mph - N/A Snow Light Snow
4:35 AM 6.8 °F -2.0 °F 3.9 °F 88% 30.38 in 4.0 mi WSW 4.6 mph - N/A Snow Light Snow
4:55 AM 7.2 °F 0.3 °F 4.1 °F 87% 30.37 in 4.0 mi WSW 3.5 mph - N/A Snow Light Snow
5:15 AM 6.8 °F -2.0 °F 3.6 °F 87% 30.38 in 7.0 mi West 4.6 mph - N/A Snow Light Snow
5:35 AM 6.8 °F -3.5 °F 3.4 °F 86% 30.38 in 4.0 mi WSW 5.8 mph - N/A Snow Light Snow
5:55 AM 6.3 °F -4.1 °F 2.3 °F 84% 30.37 in 7.0 mi WSW 5.8 mph - N/A Snow Light Snow
6:15 AM 3.6 °F -7.3 °F -0.6 °F 83% 30.37 in 4.0 mi SW 5.8 mph - N/A Snow Light Snow
6:35 AM 2.1 °F -9.0 °F -1.7 °F 84% 30.37 in 7.0 mi SW 5.8 mph - N/A Snow Light Snow
6:55 AM -0.0 °F -11.6 °F -3.5 °F 85% 30.37 in 10.0 mi SW 5.8 mph - N/A   Clear
7:15 AM 0.1 °F -12.8 °F -3.3 °F 85% 30.38 in 5.0 mi WSW 6.9 mph - N/A   Clear
7:30 AM 1.0 °F -14.0 °F -2.4 °F 86% 30.38 in 10.0 mi WSW 9.2 mph - N/A   Scattered Clouds
7:55 AM 2.3 °F -11.4 °F -1.5 °F 84% 30.39 in 10.0 mi WSW 8.1 mph - N/A Snow Light Snow
8:15 AM 1.6 °F -13.3 °F -2.6 °F 83% 30.39 in 10.0 mi WSW 9.2 mph - N/A   Scattered Clouds
8:35 AM 1.4 °F -14.5 °F -3.5 °F 80% 30.39 in 10.0 mi WSW 10.4 mph - N/A   Clear
8:55 AM 1.4 °F -13.5 °F -4.0 °F 78% 30.40 in 10.0 mi WSW 9.2 mph - N/A   Clear
9:15 AM 1.4 °F -13.5 °F -4.4 °F 77% 30.40 in 10.0 mi SW 9.2 mph - N/A   Clear
9:35 AM 1.6 °F -14.2 °F -4.7 °F 75% 30.40 in 10.0 mi SW 10.4 mph - N/A   Clear
9:55 AM 1.6 °F -13.3 °F -5.1 °F 74% 30.41 in 10.0 mi SW 9.2 mph - N/A   Clear
10:15 AM 1.4 °F -14.5 °F -5.4 °F 73% 30.41 in 10.0 mi SW 10.4 mph - N/A   Clear
10:35 AM 1.6 °F -15.1 °F -5.8 °F 71% 30.41 in 10.0 mi SW 11.5 mph - N/A   Clear
10:55 AM 2.3 °F -13.4 °F -5.3 °F 71% 30.41 in 10.0 mi SW 10.4 mph - N/A   Clear
11:15 AM 2.7 °F -13.8 °F -5.1 °F 70% 30.41 in 10.0 mi SW 11.5 mph - N/A   Clear
11:35 AM 3.2 °F -12.2 °F -5.1 °F 68% 30.40 in 10.0 mi SW 10.4 mph - N/A   Clear
11:55 AM 3.4 °F -12.0 °F -4.9 °F 68% 30.40 in 10.0 mi SW 10.4 mph - N/A   Clear
12:15 PM 4.1 °F -12.0 °F -4.5 °F 67% 30.39 in 10.0 mi WSW 11.5 mph - N/A   Clear
12:35 PM 4.6 °F -10.4 °F -4.5 °F 66% 30.39 in 10.0 mi SW 10.4 mph - N/A   Clear
12:55 PM 5.0 °F -9.1 °F -4.5 °F 65% 30.38 in 10.0 mi SW 9.2 mph - N/A   Clear
1:15 PM 5.0 °F -9.1 °F -4.4 °F 65% 30.37 in 10.0 mi SW 9.2 mph - N/A   Clear
1:35 PM 5.0 °F -10.0 °F -5.1 °F 63% 30.37 in 10.0 mi WSW 10.4 mph - N/A   Clear
1:55 PM 4.8 °F -10.2 °F -5.4 °F 63% 30.37 in 10.0 mi WSW 10.4 mph - N/A   Clear
2:15 PM 4.8 °F -11.1 °F -5.3 °F 63% 30.37 in 10.0 mi SW 11.5 mph - N/A   Clear
2:35 PM 3.9 °F -13.0 °F -4.9 °F 67% 30.36 in 10.0 mi SW 12.7 mph - N/A   Clear
2:55 PM 3.6 °F -12.6 °F -5.1 °F 67% 30.36 in 10.0 mi SW 11.5 mph - N/A   Clear
3:15 PM 3.6 °F -12.6 °F -5.3 °F 67% 30.36 in 10.0 mi SW 11.5 mph - N/A   Clear
3:35 PM 3.2 °F -12.2 °F -5.8 °F 66% 30.36 in 10.0 mi SW 10.4 mph - N/A   Clear
3:55 PM 2.5 °F -14.0 °F -6.5 °F 66% 30.36 in 10.0 mi SW 11.5 mph - N/A   Clear
4:15 PM 1.8 °F -15.7 °F -7.4 °F 65% 30.35 in 10.0 mi SW 12.7 mph - N/A   Clear
4:35 PM 0.7 °F -16.2 °F -7.6 °F 68% 30.35 in 10.0 mi SW 11.5 mph - N/A   Clear
4:55 PM -0.2 °F -15.5 °F -8.1 °F 69% 30.36 in 10.0 mi SW 9.2 mph - N/A   Clear
5:15 PM -1.5 °F -18.1 °F -8.5 °F 72% 30.36 in 10.0 mi SW 10.4 mph - N/A   Clear
5:35 PM -2.6 °F -18.4 °F -9.4 °F 73% 30.36 in 10.0 mi SW 9.2 mph - N/A   Clear
5:55 PM -3.5 °F -17.1 °F -9.6 °F 75% 30.37 in 10.0 mi SW 6.9 mph - N/A   Clear
6:15 PM -3.5 °F -19.5 °F -9.6 °F 75% 30.38 in 10.0 mi SW 9.2 mph - N/A   Clear
6:35 PM -3.8 °F -18.8 °F -10.3 °F 74% 30.38 in 10.0 mi SW 8.1 mph - N/A   Clear
6:55 PM -4.0 °F -19.0 °F -10.5 °F 74% 30.38 in 10.0 mi WSW 8.1 mph - N/A   Clear
7:15 PM -3.8 °F -18.8 °F -10.1 °F 74% 30.38 in 10.0 mi WSW 8.1 mph - N/A   Clear
7:35 PM -3.6 °F -18.6 °F -10.3 °F 73% 30.38 in 10.0 mi SW 8.1 mph - N/A   Clear
7:55 PM -4.4 °F -19.5 °F -11.2 °F 72% 30.38 in 10.0 mi WSW 8.1 mph - N/A   Clear
8:15 PM -4.4 °F -20.6 °F -11.2 °F 72% 30.38 in 10.0 mi WSW 9.2 mph - N/A   Clear
8:35 PM -4.4 °F -18.2 °F -11.0 °F 73% 30.38 in 10.0 mi WSW 6.9 mph - N/A   Clear
8:55 PM -4.9 °F -18.8 °F -11.0 °F 75% 30.39 in 10.0 mi WSW 6.9 mph - N/A   Clear
9:15 PM -4.2 °F -19.3 °F -10.3 °F 75% 30.39 in 10.0 mi WSW 8.1 mph - N/A   Clear
9:35 PM -3.5 °F -20.5 °F -9.4 °F 76% 30.38 in 10.0 mi WSW 10.4 mph - N/A   Clear
9:55 PM -3.1 °F -19.1 °F -9.0 °F 76% 30.38 in 10.0 mi West 9.2 mph - N/A   Clear
10:15 PM -3.1 °F -19.1 °F -9.4 °F 74% 30.38 in 10.0 mi WSW 9.2 mph - N/A   Clear
10:35 PM -2.9 °F -18.8 °F -9.4 °F 74% 30.38 in 10.0 mi WSW 9.2 mph - N/A   Clear
10:55 PM -3.1 °F -17.9 °F -10.1 °F 72% 30.37 in 10.0 mi West 8.1 mph - N/A   Clear
11:15 PM -4.0 °F -17.8 °F -10.7 °F 73% 30.37 in 10.0 mi West 6.9 mph - N/A   Clear
11:35 PM -4.0 °F -19.0 °F -10.5 °F 74% 30.36 in 10.0 mi West 8.1 mph - N/A   Clear
11:55 PM -4.0 °F -20.2 °F -10.5 °F 74% 30.37 in 10.0 mi West 9.2 mph - N/A   Clear